User: anonymous   Login
Location: Unspecified
(43.4000°N, 0.0000°E)
Time: 04:50:45
(UTC+00:00)
Language:

POLYITAN 1 - Orbit

View from above orbital plane
View from above orbital plane
View from above satellite
View from above satellite

Ground track
Ground track

The orbit data is extracted from the following two-line orbital elements,

1 40042U 14033AJ  19201.75871251  .00000127  00000-0  19671-4 0  9998
2 40042  97.9129 121.7181 0013496 308.3071  51.6931 14.88669258276002
Epoch (UTC): 20 July 2019 18:12:32
Eccentricity: 0.0013496
inclination: 97.9129°
perigee height: 592 km
apogee height: 611 km
right ascension of ascending node: 121.7181°
argument of perigee: 308.3071°
revolutions per day: 14.88669258
mean anomaly at epoch: 51.6931°
orbit number at epoch: 27600

The dashed part of the orbit path shows where the satellite is in the earth's shadow,  

DLR